Location: Biltmore Gardens
(41.6070°N, 83.4666°W)
Time: 15:08:42
(UTC+00:00)

Lacrosse 5 - Pass Details

Date: 14 July 2020
Orbit: 717 x 720 km, 57.0° (Epoch: 09 August)

Event Time Altitude Azimuth Distance (km) Brightness Sun altitude
Rises 08:28:28 0° 295° (WNW) 3,124 5.0 -15.7°
Reaches altitude 10° 08:32:00 10° 320° (NW) 2,204 4.5 -15.3°
Maximum altitude 08:34:43 14° 353° (N) 1,923 4.6 -15.0°
Drops below altitude 10° 08:37:27 10° 26° (NNE) 2,205 5.6 -14.6°
Sets 08:40:59 0° 51° (NE) 3,127 7.0 -14.2°
